Date_and_time,latitude,longitude,wind_speed,RelWindDirFrom,WindDirFrom,air_pressure,air_temperature,relative_humidity,Temp,platform_speed_wrt_ground,air_pressure_at_mean_sea_level,platform_orientation
2019-01-08 23:50,50.6304583333333,-96.9807666666667,13.9,23.5,298,993.01,-13.7,65,0.63,0.0,1022.45,360.0
2019-01-09 00:00,50.6304566666667,-96.98077,13.1,20.0,297,993.31,-13.9,65,0.64,0.0,1022.78,90.0
2019-01-09 00:00,50.6304566666667,-96.98077,13.7,14.2,310,993.46,-14.0,65,0.64,0.0,1022.93,90.0
2019-01-09 00:10,50.6304583333333,-96.98077,12.0,20.9,293,993.51,-14.0,65,0.64,0.0,1023.00,90.0
2019-01-09 00:20,50.6304433333333,-96.9807716666667,11.9,19.4,293,993.69,-14.2,65,0.63,0.0,1023.21,90.0
2019-01-09 00:30,50.6304466666667,-96.9807733333333,10.5,18.6,293,993.86,-14.3,65,0.63,0.0,1023.39,90.0
2019-01-09 00:40,50.6304416666667,-96.9807616666667,13.4,20.3,295,993.82,-14.3,65,0.62,0.0,1023.37,90.0
2019-01-09 00:50,50.6304466666667,-96.9807716666667,11.8,19.3,291,994.28,-14.4,65,0.62,0.0,1023.84,90.0
2019-01-09 01:00,50.63045,-96.9807666666667,10.8,17.0,291,994.50,-14.4,65,0.61,0.0,1024.08,0.0
2019-01-09 01:10,50.6304483333333,-96.9807666666667,10.2,18.0,289,994.76,-14.5,65,0.62,0.0,1024.35,0.0
2019-01-09 01:20,50.6304483333333,-96.98077,12.1,19.2,284,994.88,-14.6,66,0.63,0.0,1024.49,0.0
2019-01-09 01:30,50.6304483333333,-96.98077,10.7,16.3,289,995.12,-14.6,66,0.63,0.0,1024.75,0.0
2019-01-09 01:40,50.6304483333333,-96.9807683333333,11.2,17.4,290,995.11,-14.5,66,0.64,0.0,1024.73,0.0
2019-01-09 01:50,50.6304466666667,-96.9807666666667,11.0,16.5,293,995.22,-14.5,66,0.64,0.0,1024.86,0.0
2019-01-09 02:00,50.6304466666667,-96.980765,12.0,21.1,293,995.37,-14.5,66,0.63,0.0,1025.01,142.0
2019-01-09 02:10,50.6304483333333,-96.9807666666667,11.7,19.1,293,995.57,-14.5,66,0.62,0.0,1025.23,142.0
2019-01-09 02:20,50.6304483333333,-96.9807666666667,11.5,19.6,294,995.65,-14.5,66,0.62,0.0,1025.32,142.0
2019-01-09 02:30,50.6304483333333,-96.9807666666667,10.3,16.8,291,995.84,-14.6,66,0.61,0.0,1025.52,142.0
2019-01-09 02:40,50.6304483333333,-96.9807666666667,11.0,17.9,291,995.97,-14.7,66,0.60,0.0,1025.66,142.0
2019-01-09 02:50,50.6304483333333,-96.9807666666667,10.5,20.3,295,996.14,-14.8,66,0.60,0.0,1025.84,142.0
2019-01-09 03:00,50.6304483333333,-96.980765,10.9,15.6,294,996.31,-14.8,66,0.60,0.0,1026.03,142.0
2019-01-09 03:10,50.6304416666667,-96.980765,11.3,18.1,291,996.37,-14.8,66,0.60,0.0,1026.10,142.0
2019-01-09 03:20,50.6304533333333,-96.9807716666667,11.1,18.4,294,996.47,-14.8,67,0.59,0.0,1026.20,142.0
2019-01-09 03:30,50.630445,-96.9807616666667,11.8,20.0,290,996.45,-14.8,67,0.59,0.0,1026.18,142.0
2019-01-09 03:40,50.6304483333333,-96.980765,10.0,15.1,290,996.63,-14.8,67,0.59,0.0,1026.35,142.0
2019-01-09 03:50,50.6304483333333,-96.980765,11.3,17.2,294,996.63,-14.8,68,0.59,0.0,1026.35,142.0
2019-01-09 04:00,50.63045,-96.9807666666667,11.0,18.6,299,996.64,-14.8,68,0.59,0.0,1026.36,0.0
2019-01-09 04:10,50.6304716666667,-96.980775,10.7,16.5,296,996.75,-14.8,69,0.59,0.0,1026.48,0.0
2019-01-09 04:20,50.6304633333333,-96.9807666666667,10.1,16.8,298,996.94,-14.8,69,0.58,0.0,1026.68,0.0
2019-01-09 04:30,50.6304633333333,-96.9807666666667,10.9,15.5,295,997.12,-14.7,69,0.58,0.0,1026.87,0.0
2019-01-09 04:40,50.6304616666667,-96.9807633333333,10.8,16.1,295,997.23,-14.7,70,0.58,0.0,1026.99,0.0
2019-01-09 04:50,50.6304633333333,-96.9807666666667,10.0,14.9,291,997.57,-14.7,70,0.58,0.0,1027.34,0.0
2019-01-09 05:00,50.6304633333333,-96.9807666666667,9.4,14.8,287,997.91,-14.7,70,0.58,0.0,1027.69,360.0
2019-01-09 05:10,50.6304616666667,-96.9807683333333,8.3,13.4,284,998.21,-14.6,70,0.58,0.0,1027.99,360.0
2019-01-09 05:20,50.630445,-96.980785,8.8,13.5,279,998.48,-14.6,71,0.58,0.0,1028.28,360.0
2019-01-09 05:30,50.6304533333333,-96.98075,8.8,13.0,274,998.77,-14.8,71,0.59,0.0,1028.58,360.0
2019-01-09 05:40,50.63044,-96.9807383333333,8.0,13.2,275,998.90,-14.8,71,0.59,0.0,1028.72,360.0
2019-01-09 05:50,50.6304433333333,-96.9807483333333,7.9,11.9,278,998.97,-14.8,71,0.59,0.0,1028.79,360.0
2019-01-09 06:00,50.6304466666667,-96.9807533333333,8.0,14.8,285,999.08,-14.8,72,0.59,0.0,1028.89,90.0
2019-01-09 06:10,50.6304466666667,-96.980755,7.8,11.3,288,999.21,-14.7,72,0.59,0.0,1029.02,90.0
2019-01-09 06:20,50.6304516666667,-96.9807566666667,7.2,12.1,278,999.34,-14.7,72,0.59,0.0,1029.16,90.0
2019-01-09 06:30,50.6304516666667,-96.9807566666667,7.7,11.3,276,999.55,-14.9,73,0.60,0.0,1029.38,90.0
2019-01-09 06:40,50.6304616666667,-96.9807533333333,8.0,12.6,281,999.75,-15.0,73,0.60,0.0,1029.59,90.0
2019-01-09 06:50,50.6304566666667,-96.9807766666667,8.9,14.4,287,999.81,-15.1,75,0.60,0.0,1029.66,90.0
2019-01-09 07:00,50.63046,-96.98077,8.4,14.0,293,999.83,-15.1,76,0.60,0.0,1029.68,38.0
2019-01-09 07:10,50.630455,-96.9807666666667,9.1,14.5,296,999.97,-15.1,76,0.60,0.0,1029.82,38.0
2019-01-09 07:20,50.630455,-96.9807633333333,8.3,12.1,292,1000.08,-15.2,77,0.60,0.0,1029.95,38.0
2019-01-09 07:30,50.6304533333333,-96.98076,8.7,14.2,291,1000.33,-15.2,77,0.60,0.0,1030.21,38.0
2019-01-09 07:40,50.6304533333333,-96.98076,8.5,13.4,292,1000.42,-15.3,79,0.60,0.0,1030.30,38.0
2019-01-09 07:50,50.6304483333333,-96.980745,7.7,11.5,290,1000.65,-15.3,79,0.60,0.0,1030.55,38.0
2019-01-09 08:00,50.63046,-96.98076,7.1,10.6,286,1000.95,-15.4,80,0.61,0.0,1030.85,167.4
2019-01-09 08:10,50.63046,-96.9807666666667,8.5,12.5,291,1001.13,-15.6,80,0.61,0.0,1031.05,167.4
2019-01-09 08:20,50.6304566666667,-96.9807683333333,7.7,12.8,291,1001.42,-15.6,80,0.61,0.0,1031.35,167.4
2019-01-09 08:30,50.6304583333333,-96.98077,7.4,10.8,294,1001.57,-15.6,79,0.61,0.0,1031.51,167.4
2019-01-09 08:40,50.6304566666667,-96.9807683333333,6.3,9.3,300,1001.73,-15.5,80,0.61,0.0,1031.68,167.4
2019-01-09 08:50,50.6304216666667,-96.9807666666667,8.6,16.9,317,1001.84,-15.3,77,0.61,0.0,1031.78,167.4
2019-01-09 09:00,50.6304566666667,-96.9807783333333,9.7,18.4,312,1002.06,-14.9,71,0.61,0.0,1031.99,283.7
2019-01-09 09:10,50.6304316666667,-96.980765,13.0,22.0,320,1002.25,-15.0,69,0.60,0.0,1032.19,283.7
2019-01-09 09:20,50.6304483333333,-96.9807683333333,12.0,19.6,323,1002.39,-15.0,70,0.59,0.0,1032.35,283.7
2019-01-09 09:30,50.6304416666667,-96.9807733333333,10.9,16.8,322,1002.56,-15.2,70,0.59,0.0,1032.52,283.7
2019-01-09 09:40,50.630455,-96.980765,10.1,15.6,320,1002.70,-15.2,71,0.59,0.0,1032.68,283.7
2019-01-09 09:50,50.630445,-96.9807666666667,9.5,15.2,325,1002.83,-15.3,72,0.60,0.0,1032.83,283.7
2019-01-09 10:00,50.630445,-96.9807666666667,9.1,13.8,319,1002.94,-15.4,72,0.60,0.0,1032.95,360.0
2019-01-09 10:10,50.630445,-96.980765,8.4,13.9,306,1003.28,-15.5,72,0.60,0.0,1033.31,360.0
2019-01-09 10:20,50.6304466666667,-96.9807666666667,9.1,19.7,313,1003.45,-15.5,73,0.60,0.0,1033.49,360.0
2019-01-09 10:30,50.6304466666667,-96.9807683333333,11.5,16.8,317,1003.33,-15.6,72,0.59,0.0,1033.36,360.0
2019-01-09 10:40,50.630445,-96.9807733333333,10.1,16.7,317,1003.56,-15.7,72,0.59,0.0,1033.59,360.0
2019-01-09 10:50,50.6304533333333,-96.980775,9.7,15.9,311,1003.81,-15.9,71,0.59,0.0,1033.83,360.0
2019-01-09 11:00,50.63045,-96.9807733333333,10.2,15.8,311,1004.06,-16.0,71,0.59,0.0,1034.10,240.8
2019-01-09 11:10,50.6304533333333,-96.98077,9.5,15.6,315,1004.16,-16.2,71,0.60,0.0,1034.22,240.8
2019-01-09 11:20,50.6304533333333,-96.980765,8.7,13.0,315,1004.12,-16.3,72,0.60,0.0,1034.20,240.8
2019-01-09 11:30,50.6304333333333,-96.980775,9.9,15.7,321,1003.98,-16.4,72,0.60,0.0,1034.06,240.8
2019-01-09 11:40,50.6304416666667,-96.9807833333333,8.7,15.3,326,1004.14,-16.5,73,0.60,0.0,1034.24,240.8
2019-01-09 11:50,50.630445,-96.98078,8.3,13.6,321,1004.39,-16.6,73,0.60,0.0,1034.51,240.8
2019-01-09 12:00,50.630445,-96.98078,9.8,14.2,324,1004.50,-16.6,73,0.60,0.0,1034.62,360.0
2019-01-09 12:10,50.630445,-96.9807783333333,8.9,14.5,317,1004.83,-16.7,74,0.60,0.0,1034.97,360.0
2019-01-09 12:20,50.63045,-96.9807783333333,7.9,13.1,319,1005.07,-16.7,74,0.58,0.0,1035.23,360.0
2019-01-09 12:30,50.6304466666667,-96.980765,9.4,13.8,323,1005.08,-16.8,74,0.57,0.0,1035.24,360.0
2019-01-09 12:40,50.6304533333333,-96.9807733333333,10.1,14.5,326,1005.19,-16.8,74,0.56,0.0,1035.37,360.0
2019-01-09 12:50,50.6304566666667,-96.9807716666667,9.7,14.5,328,1005.41,-16.9,74,0.57,0.0,1035.61,360.0
2019-01-09 13:00,50.6304583333333,-96.98077,9.1,13.8,329,1005.66,-17.0,74,0.57,0.0,1035.88,360.0
2019-01-09 13:10,50.6304566666667,-96.9807666666667,8.8,13.7,334,1005.79,-17.1,75,0.58,0.0,1036.04,360.0
2019-01-09 13:20,50.630455,-96.9807683333333,8.0,11.5,336,1005.93,-17.3,75,0.59,0.0,1036.19,360.0
2019-01-09 13:30,50.630445,-96.9807683333333,7.1,10.2,332,1006.10,-17.5,76,0.59,0.0,1036.38,360.0
2019-01-09 13:40,50.63044,-96.9807616666667,5.8,10.6,321,1006.34,-17.5,76,0.59,0.0,1036.64,360.0
2019-01-09 13:50,50.6304483333333,-96.9807733333333,7.5,11.1,330,1006.36,-17.6,76,0.59,0.0,1036.66,360.0
2019-01-09 14:00,50.6304416666667,-96.9807666666667,7.5,11.5,324,1006.58,-17.7,76,0.59,0.0,1036.90,360.0
2019-01-09 14:10,50.630445,-96.9807683333333,8.3,12.1,318,1006.67,-17.8,76,0.60,0.0,1037.00,360.0
2019-01-09 14:20,50.6304483333333,-96.98077,8.2,11.3,315,1006.81,-17.9,76,0.60,0.0,1037.16,360.0
2019-01-09 14:30,50.6304466666667,-96.9807683333333,8.6,12.1,316,1006.79,-18.0,77,0.60,0.0,1037.15,360.0
2019-01-09 14:40,50.6304466666667,-96.9807683333333,7.7,11.8,316,1006.88,-18.1,77,0.60,0.0,1037.25,360.0
2019-01-09 14:50,50.6304466666667,-96.9807683333333,7.1,10.3,321,1006.97,-18.1,76,0.60,0.0,1037.35,360.0
2019-01-09 15:00,50.6304466666667,-96.9807683333333,6.7,10.6,324,1007.04,-18.1,76,0.59,0.0,1037.43,66.4
2019-01-09 15:10,50.630465,-96.980775,5.8,10.4,323,1007.20,-18.0,75,0.59,0.0,1037.59,66.4
2019-01-09 15:20,50.6304566666667,-96.9807666666667,5.7,9.1,326,1007.31,-17.9,74,0.59,0.0,1037.72,66.4
2019-01-09 15:30,50.63045,-96.9807683333333,6.3,9.9,339,1007.36,-17.9,74,0.59,0.0,1037.77,66.4
2019-01-09 15:40,50.6304483333333,-96.9807683333333,5.4,8.4,323,1007.61,-17.8,73,0.59,0.0,1038.02,66.4
2019-01-09 15:50,50.63045,-96.9807666666667,5.7,8.5,311,1007.85,-17.8,73,0.59,0.0,1038.27,66.4
2019-01-09 16:00,50.6304516666667,-96.9807683333333,5.3,8.6,310,1008.06,-17.7,73,0.59,0.0,1038.49,142.0
2019-01-09 16:10,50.63045,-96.9807666666667,6.2,9.2,313,1008.24,-17.6,72,0.58,0.0,1038.68,142.0
2019-01-09 16:20,50.63045,-96.9807666666667,6.4,9.3,317,1008.19,-17.5,72,0.58,0.0,1038.64,142.0
2019-01-09 16:30,50.6304316666667,-96.9807666666667,6.5,10.5,324,1008.09,-17.5,71,0.57,0.0,1038.53,142.0
2019-01-09 16:40,50.6304366666667,-96.98076,6.2,8.9,319,1008.14,-17.4,70,0.57,0.0,1038.58,142.0
2019-01-09 16:50,50.6304433333333,-96.9807616666667,7.1,11.3,336,1008.10,-17.2,70,0.57,0.0,1038.52,142.0
2019-01-09 17:00,50.6304516666667,-96.9807566666667,7.2,10.8,339,1008.16,-17.0,69,0.57,0.0,1038.57,360.0
2019-01-09 17:10,50.630455,-96.9807583333333,7.6,11.3,338,1008.28,-17.0,68,0.57,0.0,1038.69,360.0
2019-01-09 17:20,50.6304533333333,-96.9807616666667,5.3,9.6,334,1008.50,-16.9,68,0.56,0.0,1038.90,360.0
2019-01-09 17:30,50.6304516666667,-96.98076,4.8,7.0,308,1008.63,-16.8,67,0.56,0.0,1039.02,360.0
2019-01-09 17:40,50.630435,-96.9807866666667,5.4,7.6,324,1008.43,-16.7,66,0.56,0.0,1038.81,360.0
2019-01-09 17:50,50.63045,-96.980765,5.4,7.7,315,1008.32,-16.6,66,0.56,0.0,1038.69,360.0
2019-01-09 18:00,50.6304516666667,-96.980765,5.2,7.2,337,1008.15,-16.4,65,0.56,0.0,1038.50,360.0
2019-01-09 18:10,50.6304533333333,-96.9807666666667,6.0,8.3,346,1008.16,-16.3,65,0.56,0.0,1038.50,360.0
2019-01-09 18:20,50.63045,-96.980765,4.5,7.1,341,1008.07,-16.1,64,0.56,0.0,1038.39,360.0
2019-01-09 18:30,50.6304516666667,-96.9807666666667,4.3,7.5,341,1008.04,-16.0,63,0.56,0.0,1038.35,360.0
2019-01-09 18:40,50.6304533333333,-96.9807666666667,3.2,5.5,316,1008.07,-16.0,62,0.56,0.0,1038.36,360.0
2019-01-09 18:50,50.6304533333333,-96.9807683333333,3.9,5.9,333,1007.88,-15.9,62,0.56,0.0,1038.15,360.0
2019-01-09 19:00,50.630455,-96.9807716666667,5.0,6.9,4,1007.80,-16.1,66,0.56,0.0,1038.09,270.0
2019-01-09 19:10,50.6304533333333,-96.9807716666667,4.5,8.2,340,1007.70,-16.0,64,0.56,0.0,1037.96,270.0
2019-01-09 19:20,50.630455,-96.9807716666667,4.0,6.7,354,1007.67,-15.8,63,0.56,0.0,1037.91,270.0
2019-01-09 19:30,50.6304533333333,-96.9807716666667,5.4,8.0,16,1007.59,-16.3,67,0.56,0.0,1037.85,270.0
2019-01-09 19:40,50.6304533333333,-96.98077,6.8,8.0,22,1007.48,-16.6,69,0.56,0.0,1037.76,270.0
2019-01-09 19:50,50.6304533333333,-96.9807716666667,6.3,7.6,17,1007.63,-16.7,69,0.56,0.0,1037.90,270.0
2019-01-09 20:00,50.6304516666667,-96.9807716666667,6.5,7.6,16,1007.70,-16.6,69,0.56,0.0,1037.97,270.0
2019-01-09 20:10,50.6304516666667,-96.9807716666667,5.4,7.0,18,1007.82,-16.5,68,0.56,0.0,1038.08,270.0
2019-01-09 20:20,50.6304516666667,-96.9807716666667,5.2,5.9,27,1007.82,-16.5,68,0.56,0.0,1038.07,270.0
2019-01-09 20:30,50.6304516666667,-96.9807716666667,4.6,5.6,28,1007.86,-16.4,68,0.57,0.0,1038.10,270.0
2019-01-09 20:40,50.6304516666667,-96.9807716666667,4.7,6.2,29,1007.91,-16.4,68,0.57,0.0,1038.15,270.0
2019-01-09 20:50,50.6304516666667,-96.9807716666667,5.7,6.7,29,1007.80,-16.6,69,0.57,0.0,1038.06,270.0
2019-01-09 21:00,50.6304516666667,-96.9807716666667,5.5,6.4,29,1007.79,-16.7,69,0.57,0.0,1038.05,270.0
2019-01-09 21:10,50.63045,-96.9807716666667,4.7,5.5,32,1007.73,-16.7,70,0.56,0.0,1037.97,270.0
2019-01-09 21:20,50.63045,-96.9807716666667,3.6,5.0,28,1007.76,-16.9,71,0.56,0.0,1038.05,270.0
2019-01-09 21:30,50.63045,-96.9807716666667,2.7,3.7,14,1007.88,-16.8,70,0.57,0.0,1038.18,270.0
2019-01-09 21:40,50.6304566666667,-96.9807933333333,2.2,2.9,35,1007.86,-16.5,69,0.57,0.0,1038.15,270.0
2019-01-09 21:50,50.630445,-96.980775,2.0,2.8,76,1007.96,-15.8,67,0.57,0.0,1038.21,270.0
2019-01-09 22:00,50.6304433333333,-96.98077,1.8,2.6,70,1007.93,-15.4,66,0.57,0.0,1038.15,165.5
2019-01-09 22:10,50.630445,-96.98077,1.8,3.5,23,1007.89,-16.4,69,0.57,0.0,1038.17,165.5
2019-01-09 22:20,50.6304433333333,-96.9807683333333,1.5,2.3,42,1007.97,-17.3,72,0.58,0.0,1038.29,165.5
2019-01-09 22:30,50.6304383333333,-96.9807616666667,2.8,4.0,40,1007.86,-17.6,73,0.57,0.0,1038.19,165.5
2019-01-09 22:40,50.6304433333333,-96.9807616666667,3.5,4.4,30,1007.78,-17.7,74,0.58,0.0,1038.13,165.5
2019-01-09 22:50,50.6304466666667,-96.9807683333333,3.3,4.4,27,1007.74,-17.4,75,0.58,0.0,1038.08,165.5
2019-01-09 23:00,50.63045,-96.9807616666667,3.3,4.4,35,1007.77,-17.1,75,0.59,0.0,1038.10,90.0
2019-01-09 23:10,50.6304466666667,-96.9807633333333,3.6,5.3,22,1007.84,-17.0,74,0.59,0.0,1038.18,90.0
2019-01-09 23:20,50.630445,-96.9807666666667,3.1,4.5,16,1007.85,-16.9,73,0.60,0.0,1038.18,90.0
2019-01-09 23:30,50.6304483333333,-96.9807683333333,3.2,4.2,9,1007.79,-16.8,73,0.60,0.0,1038.08,90.0
2019-01-09 23:40,50.6304466666667,-96.9807483333333,3.0,3.8,357,1007.72,-16.8,71,0.60,0.0,1037.98,90.0
2019-01-09 23:50,50.630455,-96.9807733333333,1.6,2.8,345,1007.74,-16.8,70,0.60,0.0,1037.97,90.0
